Montluçon

France     46˚20′25″N   2˚36′40″E
temp.,
°C
wind,
m/s
gust,
m/s
humid.,
%
clouds,
%
prec.,
mm/h
press.,
hPa
HPBL,
m
1 december, tue
tue101:00+2˚wsw234597 0.0 102651
04:00+4˚sw4960100 0.1 1024242
07:00+5˚w61292100 0.6 1023434
10:00+5˚nnw51094100 0.3 1023678
13:00+6˚nnw577569 0.3 1022963
16:00+5˚nnw587944 0.1 1020821
19:00+3˚nw4109570 0.2 1021516
22:00+4˚nnw51192100 0.4 1020664
2 december, wed
wed201:00+3˚nnw61095100 0.6 1019608
04:00+3˚nnw51098100 1.3 1018575
07:00+3˚nnw5998100 2.9 1017516
10:00+4˚nnw5897100 1.3 1017497
13:00+5˚nnw4791100 1.6 1017593
16:00+5˚nnw599094 0.4 1016662
19:00+4˚nw389497 0.9 1017534
22:00+3˚wnw3696100 0.3 1017350
3 december, thu
thu301:00+3˚w3696100 0.3 1016326
04:00+2˚sw499499 0.0 1013419
07:00+3˚sw51093100 0.3 1011414
10:00+4˚ssw51090100 0.4 1009420
13:00+6˚sw61186100 0.8 10051037
16:00+5˚sw51082100 0.1 1001953
19:00+5˚s31289100 0.5 997862
22:00+5˚ssw61489100 1.4 9921006
4 december, fri
fri401:00+6˚ssw91889100 3.3 9891244
04:00+5˚ssw81887100 0.8 9851297
07:00+4˚sw81593100 4.6 984996
10:00+4˚sw8138388 0.3 9871068
13:00+5˚wsw7107380 0.3 9871151
16:00+4˚wsw4881100 0.3 987843
19:00ssw359383 0.4 990120
22:00−1˚s34930 0.0 99190
5 december, sat
sat501:00ssw389146 0.0 992243
04:00ssw239483 0.0 99269
07:00+1˚sw588972 0.0 993415
10:00+2˚ssw498128 0.0 994610
13:00+6˚ssw696615 0.0 9931249
16:00+4˚ssw6107182 0.0 9931049
19:00+2˚ssw6158490 0.1 991757
22:00+4˚ssw51387100 0.7 9911202